Syracuse, NY

5:48 PM EDT on October 15, 2019 (GMT -0400)
Syracuse Hancock International

Weather History for KSYR - June, 2019

Change the Weather History Date:

Sunday, June 9, 2019

  Actual Average Record
Temperature  
Mean Temperature 69 °F 65 °F  
Max Temperature 85 °F 76 °F 95 °F (2008)
Min Temperature 53 °F 54 °F 37 °F (1983)
Degree Days  
Heating Degree Days 0 3  
Month to date heating degree days 29 32  
Since 1 June heating degree days 29 32  
Since 1 July heating degree days 6753 6622  
Cooling Degree Days 4 3  
Month to date cooling degree days 7 21  
Year to date cooling degree days 20 51  
Since 1 June cooling degree days 7 21  
Growing Degree Days 18 (Base 50)    
Moisture  
Dew Point 49 °F    
Average Humidity 51    
Maximum Humidity 72    
Minimum Humidity 29    
Precipitation  
Precipitation 0.00 in 0.11 in 1.30 in (1966)
Month to date precipitation 1.27 0.98  
Year to date precipitation 18.92 14.91  
Snow  
Snow 0.00 in 0.00 in 0.00 in (2002)
Month to date snowfall 0.0 0.0  
Since 1 June snowfall 0.0 0.0  
Since 1 July snowfall 115.0 123.8  
Snow Depth 0.00 in    
Sea Level Pressure  
Sea Level Pressure 30.21 in    
Wind  
Wind Speed 8 mph (ESE)    
Max Wind Speed 17 mph    
Max Gust Speed 21 mph    
Visibility 10 miles    
Events      
T = Trace of Precipitation, MM = Missing Value Source: NWS Daily Summary

Daily Weather History Graph

Daily Weather History Graph

Search for Another Location

Airport or City:

Astronomy

Jun. 09, 2019 Rise Set
Actual Time 5:24 AM EDT 8:42 PM EDT
Civil Twilight 4:49 AM EDT 9:17 PM EDT
Nautical Twilight 4:04 AM EDT 10:03 PM EDT
Astronomical Twilight 3:08 AM EDT 10:59 PM EDT
Moon 12:06 PM EDT (6/9) 1:16 AM EDT (6/9)
Length of Visible Light 16h 28m
Length of Day
15h 17m
Waxing Crescent, 43% of the Moon is Illuminated
Jun 9
Waxing Crescent
Jun 10
First Quarter
Jun 17
Full
Jun 25
Last Quarter
Jul 2
New

Hourly Weather History & Observations

Time (EDT) Temp. Heat Index Dew Point Humidity Pressure Visibility Wind Dir Wind Speed Gust Speed Precip Events Conditions
12:54 AM 59.0 °F - 50.0 °F 72% 30.19 in 10.0 mi East 6.9 mph - N/A   Partly Cloudy
1:54 AM 60.1 °F - 46.9 °F 62% 30.19 in 10.0 mi ENE 9.2 mph - N/A   Clear
2:54 AM 57.0 °F - 46.0 °F 67% 30.21 in 10.0 mi SE 4.6 mph - N/A   Clear
3:54 AM 55.9 °F - 44.1 °F 64% 30.22 in 10.0 mi ENE 5.8 mph - N/A   Clear
4:54 AM 55.0 °F - 43.0 °F 64% 30.24 in 10.0 mi East 5.8 mph - N/A   Partly Cloudy
5:54 AM 54.0 °F - 43.0 °F 66% 30.24 in 10.0 mi East 6.9 mph - N/A   Scattered Clouds
6:54 AM 57.0 °F - 44.1 °F 62% 30.26 in 10.0 mi East 4.6 mph - N/A   Mostly Cloudy
7:54 AM 63.0 °F - 46.9 °F 56% 30.27 in 10.0 mi ENE 3.5 mph - N/A   Partly Cloudy
8:54 AM 69.1 °F - 51.1 °F 53% 30.27 in 10.0 mi East 5.8 mph - N/A   Partly Cloudy
9:54 AM 73.9 °F - 54.0 °F 50% 30.27 in 10.0 mi East 5.8 mph - N/A   Scattered Clouds
10:54 AM 75.9 °F - 54.0 °F 46% 30.25 in 10.0 mi East 5.8 mph - N/A   Scattered Clouds
11:54 AM 78.1 °F - 55.9 °F 46% 30.25 in 10.0 mi ENE 8.1 mph - N/A   Mostly Cloudy
12:54 PM 81.0 °F 80.8 °F 55.9 °F 42% 30.23 in 10.0 mi NE 6.9 mph - N/A   Mostly Cloudy
1:54 PM 82.0 °F - 52.0 °F 35% 30.20 in 10.0 mi East 9.2 mph - N/A   Mostly Cloudy
2:54 PM 82.0 °F - 52.0 °F 35% 30.19 in 10.0 mi East 12.7 mph - N/A   Mostly Cloudy
3:54 PM 82.9 °F - 51.1 °F 33% 30.17 in 10.0 mi ESE 11.5 mph - N/A   Mostly Cloudy
4:54 PM 84.0 °F - 48.9 °F 29% 30.17 in 10.0 mi ESE 8.1 mph - N/A   Mostly Cloudy
5:54 PM 84.0 °F - 48.9 °F 29% 30.15 in 10.0 mi SE 8.1 mph - N/A   Mostly Cloudy
6:54 PM 82.0 °F - 48.0 °F 30% 30.15 in 10.0 mi SSE 12.7 mph - N/A   Mostly Cloudy
7:54 PM 79.0 °F - 45.0 °F 30% 30.16 in 10.0 mi South 8.1 mph - N/A   Mostly Cloudy
8:54 PM 75.9 °F - 46.9 °F 36% 30.17 in 10.0 mi SSE 10.4 mph - N/A   Scattered Clouds
9:54 PM 73.9 °F - 48.0 °F 40% 30.18 in 10.0 mi SSE 10.4 mph - N/A   Mostly Cloudy
10:54 PM 70.0 °F - 48.0 °F 46% 30.17 in 10.0 mi SE 8.1 mph - N/A   Mostly Cloudy
11:54 PM 69.1 °F - 48.0 °F 47% 30.17 in 10.0 mi SSE 9.2 mph - N/A   Mostly Cloudy